TimeEST,TemperatureF,Dew PointF,Humidity,Sea Level PressureIn,VisibilityMPH,Wind Direction,Wind SpeedMPH,Gust SpeedMPH,PrecipitationIn,Events,Conditions,WindDirDegrees,DateUTC
12:15 AM,37.4,37.4,100,30.28,10.0,Calm,Calm,-,N/A,,Clear,0,2013-03-09 05:15:00
12:35 AM,35.6,35.6,100,30.28,10.0,Calm,Calm,-,N/A,,Clear,0,2013-03-09 05:35:00
12:55 AM,37.4,37.4,100,30.28,10.0,Calm,Calm,-,N/A,,Clear,0,2013-03-09 05:55:00
1:15 AM,35.6,35.6,100,30.28,10.0,Calm,Calm,-,N/A,,Clear,0,2013-03-09 06:15:00
1:35 AM,35.6,35.6,100,30.27,10.0,Calm,Calm,-,N/A,,Clear,0,2013-03-09 06:35:00
1:55 AM,35.6,35.6,100,30.27,10.0,Calm,Calm,-,N/A,,Clear,0,2013-03-09 06:55:00
2:15 AM,35.6,35.6,100,30.27,10.0,Calm,Calm,-,N/A,,Clear,0,2013-03-09 07:15:00
2:35 AM,33.8,33.8,100,30.27,10.0,Calm,Calm,-,N/A,,Clear,0,2013-03-09 07:35:00
2:55 AM,33.8,33.8,100,30.26,7.0,Calm,Calm,-,N/A,,Clear,0,2013-03-09 07:55:00
3:15 AM,35.6,35.6,100,30.25,10.0,Calm,Calm,-,N/A,,Clear,0,2013-03-09 08:15:00
3:35 AM,35.6,35.6,100,30.25,10.0,ENE,3.5,-,N/A,,Clear,70,2013-03-09 08:35:00
3:55 AM,33.8,33.8,100,30.24,10.0,Calm,Calm,-,N/A,,Clear,0,2013-03-09 08:55:00
4:15 AM,33.8,33.8,100,30.25,10.0,Calm,Calm,-,N/A,,Clear,0,2013-03-09 09:15:00
4:35 AM,33.8,33.8,100,30.26,10.0,Calm,Calm,-,N/A,,Clear,0,2013-03-09 09:35:00
4:55 AM,32.0,32.0,100,30.26,10.0,Calm,Calm,-,N/A,,Clear,0,2013-03-09 09:55:00
5:15 AM,32.0,32.0,100,30.27,10.0,Calm,Calm,-,N/A,,Clear,0,2013-03-09 10:15:00
5:35 AM,33.8,33.8,100,30.28,10.0,Calm,Calm,-,N/A,,Clear,0,2013-03-09 10:35:00
5:55 AM,32.0,32.0,100,30.29,10.0,Calm,Calm,-,N/A,,Clear,0,2013-03-09 10:55:00
6:15 AM,32.0,32.0,100,30.29,7.0,Calm,Calm,-,N/A,,Clear,0,2013-03-09 11:15:00
6:35 AM,32.0,32.0,100,30.30,7.0,Calm,Calm,-,N/A,,Clear,0,2013-03-09 11:35:00
6:55 AM,32.0,32.0,100,30.31,7.0,Calm,Calm,-,N/A,,Clear,0,2013-03-09 11:55:00
7:15 AM,32.0,32.0,100,30.31,10.0,Calm,Calm,-,N/A,,Clear,0,2013-03-09 12:15:00
7:35 AM,37.4,32.0,81,30.32,10.0,NE,3.5,-,N/A,,Clear,50,2013-03-09 12:35:00
7:55 AM,41.0,32.0,70,30.33,10.0,ENE,4.6,-,N/A,,Clear,60,2013-03-09 12:55:00
8:15 AM,42.8,30.2,61,30.34,10.0,East,5.8,-,N/A,,Clear,80,2013-03-09 13:15:00
8:35 AM,44.6,30.2,57,30.35,10.0,East,5.8,-,N/A,,Clear,100,2013-03-09 13:35:00
8:55 AM,46.4,30.2,53,30.36,10.0,East,4.6,-,N/A,,Clear,90,2013-03-09 13:55:00
9:15 AM,48.2,30.2,50,30.37,10.0,East,8.1,-,N/A,,Clear,80,2013-03-09 14:15:00
9:35 AM,50.0,28.4,43,30.36,10.0,ESE,5.8,-,N/A,,Clear,110,2013-03-09 14:35:00
9:55 AM,51.8,26.6,38,30.36,10.0,ESE,6.9,-,N/A,,Clear,110,2013-03-09 14:55:00
10:15 AM,53.6,26.6,35,30.36,10.0,East,5.8,-,N/A,,Clear,100,2013-03-09 15:15:00
10:35 AM,53.6,26.6,35,30.36,10.0,East,6.9,-,N/A,,Clear,80,2013-03-09 15:35:00
10:55 AM,55.4,24.8,31,30.36,10.0,SE,6.9,-,N/A,,Clear,130,2013-03-09 15:55:00
11:15 AM,57.2,26.6,31,30.35,10.0,East,6.9,-,N/A,,Clear,100,2013-03-09 16:15:00
11:35 AM,59.0,26.6,29,30.35,10.0,ESE,5.8,-,N/A,,Clear,120,2013-03-09 16:35:00
11:55 AM,60.8,24.8,25,30.34,10.0,East,4.6,-,N/A,,Clear,90,2013-03-09 16:55:00
12:15 PM,59.0,24.8,27,30.34,10.0,East,4.6,-,N/A,,Clear,100,2013-03-09 17:15:00
12:35 PM,60.8,24.8,25,30.32,10.0,NE,9.2,-,N/A,,Clear,50,2013-03-09 17:35:00
12:55 PM,60.8,24.8,25,30.32,10.0,Calm,Calm,-,N/A,,Clear,0,2013-03-09 17:55:00
1:15 PM,62.6,24.8,24,30.31,10.0,ESE,3.5,-,N/A,,Clear,110,2013-03-09 18:15:00
1:35 PM,62.6,26.6,26,30.29,10.0,NNE,5.8,-,N/A,,Clear,30,2013-03-09 18:35:00
1:55 PM,64.4,21.2,19,30.28,10.0,Calm,Calm,-,N/A,,Clear,0,2013-03-09 18:55:00
2:15 PM,64.4,23.0,21,30.28,10.0,NE,4.6,-,N/A,,Clear,40,2013-03-09 19:15:00
2:35 PM,64.4,21.2,19,30.27,10.0,ENE,5.8,-,N/A,,Clear,60,2013-03-09 19:35:00
2:55 PM,64.4,23.0,21,30.27,10.0,NE,4.6,-,N/A,,Clear,40,2013-03-09 19:55:00
3:15 PM,66.2,23.0,19,30.26,10.0,ENE,5.8,-,N/A,,Clear,60,2013-03-09 20:15:00
3:35 PM,66.2,23.0,19,30.26,10.0,NW,3.5,-,N/A,,Clear,310,2013-03-09 20:35:00
3:55 PM,68.0,21.2,17,30.25,10.0,ESE,3.5,-,N/A,,Clear,120,2013-03-09 20:55:00
4:15 PM,68.0,23.0,18,30.24,10.0,ENE,3.5,-,N/A,,Clear,60,2013-03-09 21:15:00
4:35 PM,66.2,23.0,19,30.23,10.0,Calm,Calm,-,N/A,,Clear,0,2013-03-09 21:35:00
4:55 PM,66.2,24.8,21,30.23,10.0,Calm,Calm,-,N/A,,Clear,0,2013-03-09 21:55:00
5:15 PM,66.2,23.0,19,30.24,10.0,SE,4.6,-,N/A,,Clear,140,2013-03-09 22:15:00
5:35 PM,66.2,23.0,19,30.23,10.0,Calm,Calm,-,N/A,,Clear,0,2013-03-09 22:35:00
5:55 PM,64.4,26.6,24,30.24,10.0,East,3.5,-,N/A,,Clear,90,2013-03-09 22:55:00
6:15 PM,64.4,24.8,22,30.24,10.0,Calm,Calm,-,N/A,,Clear,0,2013-03-09 23:15:00
6:35 PM,60.8,32.0,34,30.24,10.0,Calm,Calm,-,N/A,,Clear,0,2013-03-09 23:35:00
6:55 PM,57.2,35.6,44,30.24,1.8,Calm,Calm,-,N/A,,Haze,0,2013-03-09 23:55:00
7:15 PM,55.4,33.8,44,30.25,10.0,Calm,Calm,-,N/A,,Clear,0,2013-03-10 00:15:00
7:35 PM,51.8,41.0,67,30.25,10.0,Calm,Calm,-,N/A,,Clear,0,2013-03-10 00:35:00
7:55 PM,50.0,41.0,71,30.26,10.0,Calm,Calm,-,N/A,,Clear,0,2013-03-10 00:55:00
8:15 PM,51.8,39.2,62,30.26,10.0,Calm,Calm,-,N/A,,Clear,0,2013-03-10 01:15:00
8:35 PM,51.8,41.0,67,30.25,10.0,Calm,Calm,-,N/A,,Clear,0,2013-03-10 01:35:00
8:55 PM,51.8,42.8,71,30.25,10.0,Calm,Calm,-,N/A,,Clear,0,2013-03-10 01:55:00
9:15 PM,51.8,44.6,76,30.25,10.0,Calm,Calm,-,N/A,,Clear,0,2013-03-10 02:15:00
9:35 PM,51.8,42.8,71,30.25,10.0,Calm,Calm,-,N/A,,Clear,0,2013-03-10 02:35:00
9:55 PM,51.8,41.0,67,30.25,10.0,Calm,Calm,-,N/A,,Clear,0,2013-03-10 02:55:00
10:15 PM,51.8,37.4,58,30.25,10.0,Calm,Calm,-,N/A,,Clear,0,2013-03-10 03:15:00
10:35 PM,50.0,42.8,76,30.26,10.0,Calm,Calm,-,N/A,,Clear,0,2013-03-10 03:35:00
10:55 PM,53.6,33.8,47,30.26,10.0,SSE,8.1,-,N/A,,Clear,150,2013-03-10 03:55:00
11:15 PM,53.6,33.8,47,30.27,10.0,SSE,4.6,-,N/A,,Clear,160,2013-03-10 04:15:00
11:35 PM,53.6,35.6,51,30.27,10.0,SSE,6.9,-,N/A,,Clear,160,2013-03-10 04:35:00
11:55 PM,51.8,35.6,54,30.27,10.0,SSE,4.6,-,N/A,,Clear,160,2013-03-10 04:55:00